GW3756 Weather Reports


Display with metric or nautical units.
time (UTC)temp
F
wind
direction
speed
MPH
gust
MPH
rain 1hr
in
rain 24hr
in
rain mn
in
humidity
%
barometer
mb
20260510132516 49 316 1.0 4.0 0.00 0.16 0.00 45 1015.3
20260510131536 48 352 1.0 10.0 0.00 0.16 0.00 48 1015.2
20260510130516 48 322 1.0 2.0 0.00 0.16 0.00 49 1015.0
20260510125555 47 356 2.0 8.0 0.00 0.16 0.00 51 1014.9
20260510124515 47 329 1.0 3.0 0.00 0.16 0.00 55 1014.9
20260510123515 47 338 1.0 3.0 0.00 0.16 0.00 56 1014.9
20260510122537 46 337 1.0 3.0 0.00 0.16 0.00 60 1014.8
20260510121516 45 321 1.0 4.0 0.00 0.16 0.00 61 1014.8
20260510120516 45 337 1.0 4.0 0.00 0.16 0.00 66 1014.7
20260510115536 44 326 1.0 3.0 0.00 0.16 0.00 67 1014.5
20260510114515 44 328 1.0 2.0 0.00 0.16 0.00 68 1014.5
20260510113515 43 329 1.0 3.0 0.00 0.16 0.00 70 1014.4
20260510112517 42 326 0.0 2.0 0.00 0.16 0.00 72 1014.2
20260510111516 40 320 0.0 2.0 0.00 0.16 0.00 76 1013.9
20260510110516 40 312 0.0 1.0 0.00 0.16 0.00 80 1013.7
20260510105526 39 314 0.0 1.0 0.00 0.16 0.00 81 1013.6
20260510104517 38 323 0.0 1.0 0.00 0.16 0.00 84 1013.6
20260510103524 37 0.0 0.0 0.00 0.16 0.00 89 1013.5
20260510102516 36 0.0 0.0 0.00 0.16 0.00 91 1013.4
20260510101515 36 0.0 0.0 0.00 0.16 0.00 91 1013.1
20260510100517 36 0.0 0.0 0.00 0.16 0.00 92 1013.1
20260510095516 36 0.0 0.0 0.00 0.16 0.00 93 1012.9
20260510094516 36 0.0 0.0 0.00 0.16 0.00 92 1012.7
20260510093524 36 0.0 0.0 0.00 0.16 0.00 92 1012.5
20260510092537 36 0.0 0.0 0.00 0.16 0.00 92 1012.3
20260510091517 36 0.0 0.0 0.00 0.16 0.00 92 1012.2
20260510090546 36 0.0 0.0 0.00 0.16 0.00 92 1012.1
20260510085516 36 0.0 0.0 0.00 0.16 0.00 93 1011.8
20260510084528 35 0.0 0.0 0.00 0.16 0.00 92 1011.6
20260510083517 36 0.0 0.0 0.00 0.16 0.00 90 1011.5
20260510082516 37 0.0 0.0 0.00 0.16 0.00 89 1011.3
20260510081516 37 0.0 0.0 0.00 0.16 0.00 88 1011.2
20260510080516 38 0.0 0.0 0.00 0.16 0.00 87 1011.0
20260510075515 38 0.0 0.0 0.00 0.16 0.00 86 1010.9
20260510074537 39 0.0 0.0 0.00 0.16 0.00 84 1010.9
20260510073516 40 0.0 0.0 0.00 0.16 0.00 82 1010.8
20260510072516 41 0.0 0.0 0.00 0.16 0.00 80 1010.6
20260510071515 41 349 0.0 1.0 0.00 0.16 0.00 79 1010.6
20260510070530 41 340 0.0 1.0 0.00 0.16 0.00 79 1010.4
20260510065515 42 336 1.0 4.0 0.00 0.16 0.00 77 1010.4
20260510064517 42 344 1.0 2.0 0.00 0.16 0.00 77 1010.3
20260510063516 42 328 0.0 1.0 0.00 0.16 0.00 78 1010.3
20260510062536 42 13 1.0 4.0 0.00 0.16 0.00 80 1010.2
20260510061516 42 344 1.0 4.0 0.00 0.16 0.00 79 1010.1
20260510060516 43 357 1.0 3.0 0.00 0.16 0.00 78 1010.1
20260510055516 43 347 2.0 4.0 0.00 0.16 0.00 78 1009.9
20260510054515 43 357 1.0 3.0 0.00 0.16 0.00 78 1009.9
20260510053517 43 349 2.0 7.0 0.00 0.16 0.00 77 1009.9
20260510052517 44 12 2.0 6.0 0.00 0.16 0.00 77 1009.7
20260510051516 44 348 3.0 8.0 0.00 0.16 0.00 75 1009.6
20260510050516 44 1 4.0 10.0 0.00 0.16 0.00 74 1009.3
20260510045520 45 351 3.0 9.0 0.00 0.16 0.00 73 1009.2
20260510044517 45 359 2.0 7.0 0.00 0.16 0.00 72 1008.8
20260510043516 45 345 2.0 9.0 0.00 0.16 0.00 74 1008.7
20260510042516 45 358 1.0 7.0 0.00 0.16 0.00 78 1008.5
20260510041516 45 356 0.0 2.0 0.00 0.16 0.00 78 1008.1
20260510040515 45 354 1.0 2.0 0.00 0.16 0.00 78 1008.0
20260510035537 45 354 1.0 3.0 0.00 0.16 0.16 78 1007.9
20260510034517 46 358 1.0 3.0 0.00 0.16 0.16 78 1007.9
20260510033516 46 10 1.0 4.0 0.00 0.16 0.16 78 1007.8
20260510032516 47 2 1.0 4.0 0.00 0.16 0.16 77 1007.8
20260510031515 47 338 1.0 4.0 0.00 0.16 0.16 77 1007.3
20260510030525 48 350 0.0 3.0 0.00 0.16 0.16 77 1007.4
20260510025516 49 1 0.0 2.0 0.00 0.16 0.16 76 1007.0
20260510024521 49 344 1.0 3.0 0.00 0.16 0.16 76 1006.9
20260510023515 49 10 2.0 3.0 0.00 0.16 0.16 75 1006.8
20260510022517 49 349 2.0 7.0 0.00 0.16 0.16 75 1006.6
20260510021516 48 340 1.0 4.0 0.00 0.16 0.16 75 1006.4
20260510020516 48 356 1.0 6.0 0.00 0.16 0.16 76 1006.0
20260510015516 48 335 2.0 3.0 0.00 0.16 0.16 74 1005.8
20260510014515 50 2 1.0 4.0 0.00 0.16 0.16 72 1005.5
20260510013517 51 359 3.0 7.0 0.00 0.16 0.16 69 1005.2
20260510012536 52 20 3.0 8.0 0.00 0.16 0.16 67 1004.8
20260510011536 57 1 4.0 13.0 0.00 0.16 0.16 57 1004.6
20260510010521 62 351 3.0 7.0 0.00 0.16 0.16 44 1003.9
20260510005539 63 331 1.0 4.0 0.00 0.16 0.16 37 1003.4
20260510004517 63 0.0 0.0 0.00 0.16 0.16 37 1003.4
20260510003516 63 317 0.0 3.0 0.00 0.16 0.16 36 1003.2
20260510002516 64 292 2.0 10.0 0.00 0.16 0.16 35 1003.0
20260510001515 64 314 1.0 9.0 0.00 0.16 0.16 35 1002.9
20260510000517 64 295 3.0 10.0 0.00 0.16 0.16 35 1002.8
20260509235517 65 317 2.0 8.0 0.00 0.16 0.16 36 1002.8
20260509234516 65 299 2.0 7.0 0.00 0.16 0.16 38 1002.7
20260509233520 66 330 2.0 6.0 0.00 0.16 0.16 38 1002.3
20260509232515 67 314 2.0 7.0 0.00 0.16 0.16 38 1002.2
20260509231517 66 330 3.0 13.0 0.00 0.16 0.16 39 1002.0
20260509230536 66 315 3.0 7.0 0.00 0.16 0.16 39 1001.8
20260509225516 67 298 3.0 7.0 0.00 0.16 0.16 38 1001.4
20260509224515 69 301 3.0 8.0 0.00 0.16 0.16 37 1001.2
20260509223528 69 269 3.0 13.0 0.00 0.16 0.16 38 1001.2
20260509222516 69 263 3.0 11.0 0.00 0.16 0.16 38 1000.9
20260509221516 68 309 2.0 7.0 0.00 0.16 0.16 38 1000.6
20260509220516 68 306 4.0 11.0 0.00 0.16 0.16 38 1000.6
20260509215515 68 320 4.0 11.0 0.00 0.16 0.16 37 1000.6
20260509214529 69 302 6.0 19.0 0.00 0.16 0.16 36 1000.4
20260509213517 69 269 5.0 21.0 0.00 0.16 0.16 36 1000.1
20260509212517 69 246 6.0 17.0 0.00 0.16 0.16 36 1000.0
20260509211536 69 267 6.0 18.0 0.00 0.16 0.16 37 999.9
20260509210516 69 232 4.0 14.0 0.00 0.16 0.16 38 1000.0
20260509205515 68 251 4.0 17.0 0.00 0.16 0.16 40 999.9
20260509204534 68 293 6.0 16.0 0.00 0.16 0.16 41 1000.3
20260509203537 66 309 3.0 13.0 0.00 0.16 0.16 61 1000.3
20260509202541 66 254 2.0 6.0 0.00 0.16 0.16 65 1000.3
20260509201523 65 275 2.0 7.0 0.01 0.16 0.16 67 1000.6
20260509200536 63 255 3.0 7.0 0.02 0.16 0.16 70 1000.7
20260509195533 62 254 2.0 8.0 0.09 0.16 0.16 73 1000.7
20260509194515 60 272 2.0 7.0 0.12 0.16 0.16 79 1000.9
20260509193517 57 266 2.0 7.0 0.15 0.16 0.16 82 1001.1
20260509192517 54 251 2.0 9.0 0.16 0.16 0.16 84 1001.2
20260509191516 55 261 3.0 11.0 0.15 0.15 0.15 80 1001.5
20260509190536 56 286 3.0 11.0 0.14 0.14 0.14 78 1001.6
20260509185535 61 313 1.0 8.0 0.07 0.07 0.07 74 1000.9
20260509184517 61 215 6.0 17.0 0.04 0.04 0.04 70 999.9
20260509183517 64 202 5.0 15.0 0.01 0.01 0.01 66 1000.0
20260509182516 65 212 5.0 10.0 0.00 0.00 0.00 60 999.7
20260509181516 65 204 6.0 13.0 0.00 0.00 0.00 59 999.7
20260509180533 66 206 6.0 13.0 0.00 0.00 0.00 59 999.9
20260509175515 66 187 6.0 13.0 0.00 0.00 0.00 60 999.9
20260509174517 65 213 6.0 15.0 0.00 0.00 0.00 61 1000.1
20260509173516 65 175 7.0 16.0 0.00 0.00 0.00 61 1000.1
20260509172516 66 217 6.0 17.0 0.00 0.00 0.00 60 1000.3
20260509171519 64 203 5.0 13.0 0.00 0.00 0.00 64 1000.3
20260509170516 62 200 5.0 14.0 0.00 0.00 0.00 68 1000.7
20260509165533 61 208 4.0 13.0 0.00 0.00 0.00 70 1000.8
20260509164517 62 209 5.0 15.0 0.00 0.00 0.00 67 1001.1
20260509163529 64 191 6.0 15.0 0.00 0.00 0.00 64 1000.8
20260509162516 63 203 6.0 13.0 0.00 0.00 0.00 66 1001.0
20260509161516 63 202 5.0 10.0 0.00 0.00 0.00 69 1001.0
20260509160526 60 209 4.0 11.0 0.00 0.00 0.00 75 1001.2
20260509155517 60 199 3.0 11.0 0.00 0.00 0.00 76 1001.6
20260509154517 59 207 4.0 11.0 0.00 0.00 0.00 76 1001.4
20260509153556 58 187 4.0 14.0 0.00 0.00 0.00 79 1001.8
20260509152516 58 224 3.0 7.0 0.00 0.00 0.00 78 1002.4
20260509151516 57 197 3.0 8.0 0.00 0.00 0.00 80 1002.1
20260509150517 56 175 3.0 8.0 0.00 0.00 0.00 84 1002.3
20260509145517 55 246 2.0 6.0 0.00 0.00 0.00 85 1002.8
20260509144516 56 296 1.0 3.0 0.00 0.00 0.00 83 1003.9
20260509143516 56 272 1.0 4.0 0.00 0.00 0.00 81 1003.7
20260509142515 56 259 2.0 7.0 0.00 0.00 0.00 83 1003.2
20260509141525 56 244 2.0 7.0 0.00 0.00 0.00 83 1002.9
20260509140516 57 208 3.0 9.0 0.00 0.00 0.00 83 1002.9
20260509135536 56 242 3.0 7.0 0.00 0.00 0.00 84 1002.9
20260509134515 55 216 2.0 6.0 0.00 0.00 0.00 86 1003.1
20260509133517 54 198 3.0 8.0 0.00 0.00 0.00 89 1003.2